Location: Anna District 4 Election Precinct
(37.4833°N, 89.2195°W)
Time: 15:08:14
(UTC+00:00)

Cosmos 1300 - Pass Details

Date: 29 October 2020
Orbit: 511 x 514 km, 82.5° (Epoch: 04 December)

Event Time Altitude Azimuth Distance (km) Brightness Sun altitude
Rises 23:21:46 0° 187° (S) 2,612 6.6 -4.7°
Reaches altitude 10° 23:23:53 10° 187° (S) 1,731 5.7 -5.1°
Maximum altitude 23:27:40 87° 272° (W) 520 2.7 -5.9°
Drops below altitude 10° 23:31:31 10° 6° (N) 1,746 5.2 -6.6°
Sets 23:33:39 0° 7° (N) 2,637 6.1 -7.0°
